FW7582 Weather Reports


time (UTC)temp
F
wind
direction
speed
knots
gust
knots
rain 1hr
in
rain 24hr
in
rain mn
in
humidity
%
barometer
mb
20260503200021 80 350 0.0 0.9 0.00 0.00 0.00 46 1015.7
20260503195518 81 323 0.0 0.9 0.00 0.00 0.00 45 1015.9
20260503195015 80 22 0.0 1.7 0.00 0.00 0.00 46 1015.8
20260503194512 80 296 0.0 0.9 0.00 0.00 0.00 46 1016.0
20260503194012 80 320 0.0 0.9 0.00 0.00 0.00 50 1015.9
20260503193508 79 327 0.0 0.9 0.00 0.00 0.00 53 1015.9
20260503193004 78 338 0.9 0.9 0.00 0.00 0.00 49 1016.1
20260503192500 78 6 0.0 0.9 0.00 0.00 0.00 51 1016.2
20260503191955 77 20 0.0 0.0 0.00 0.00 0.00 51 1016.3
20260503191453 77 40 0.0 1.7 0.00 0.00 0.00 49 1016.3
20260503190949 77 15 0.0 1.7 0.00 0.00 0.00 52 1016.5
20260503190447 75 11 0.0 0.9 0.00 0.00 0.00 54 1016.4
20260503185944 76 97 0.0 0.9 0.00 0.00 0.00 50 1016.4
20260503185440 75 35 0.0 0.9 0.00 0.00 0.00 49 1016.5
20260503184939 75 30 0.9 2.6 0.00 0.00 0.00 51 1016.7
20260503184436 75 295 0.9 0.9 0.00 0.00 0.00 51 1016.5
20260503183932 75 319 0.0 0.9 0.00 0.00 0.00 55 1016.8
20260503183429 75 134 0.0 0.9 0.00 0.00 0.00 52 1016.8
20260503182926 73 319 0.0 0.9 0.00 0.00 0.00 57 1016.7
20260503182425 73 29 0.0 1.7 0.00 0.00 0.00 54 1017.0
20260503181922 72 4 0.0 1.7 0.00 0.00 0.00 61 1016.9
20260503181419 72 15 0.0 0.0 0.00 0.00 0.00 58 1017.2
20260503180915 72 332 0.0 0.0 0.00 0.00 0.00 60 1017.0
20260503180414 71 19 0.0 0.0 0.00 0.00 0.00 60 1017.0
20260503175910 71 14 0.0 0.9 0.00 0.00 0.00 62 1017.1
20260503175408 71 52 0.0 0.9 0.00 0.00 0.00 63 1017.0
20260503174903 71 52 0.0 0.9 0.00 0.00 0.00 64 1017.2
20260503174402 70 51 0.0 0.9 0.00 0.00 0.00 67 1017.2
20260503173856 70 348 0.0 0.0 0.00 0.00 0.00 64 1017.2
20260503173353 69 25 0.0 0.0 0.00 0.00 0.00 69 1017.4
20260503172849 69 18 0.0 0.0 0.00 0.00 0.00 69 1017.2
20260503172347 68 20 0.0 0.0 0.00 0.00 0.00 70 1017.3
20260503171843 68 95 0.0 0.9 0.00 0.00 0.00 72 1017.3
20260503171340 67 350 0.0 0.9 0.00 0.00 0.00 72 1017.4
20260503170838 67 332 0.0 0.9 0.00 0.00 0.00 75 1017.4
20260503170334 67 357 0.0 0.0 0.00 0.00 0.00 74 1017.4
20260503150726 55 26 0.0 0.0 0.00 0.00 0.00 92 1017.6
20260503150222 55 18 0.0 0.0 0.00 0.00 0.00 94 1017.5
20260503140147 50 341 0.0 0.0 0.00 0.00 0.00 99 1017.5
20260503131116 48 346 0.0 0.0 0.00 0.00 0.00 99 1017.6
20260503130614 48 346 0.0 0.0 0.00 0.00 0.00 99 1017.4
20260503130112 48 347 0.0 0.0 0.00 0.00 0.00 99 1017.5
20260503110504 49 346 0.0 0.0 0.00 0.00 0.00 98 1017.7
20260503090355 51 343 0.0 0.0 0.00 0.00 0.00 95 1017.9
20260503081323 52 342 0.0 0.0 0.00 0.00 0.00 93 1017.8
20260503080819 52 341 0.0 0.0 0.00 0.00 0.00 92 1017.8
20260503080317 52 341 0.0 0.0 0.00 0.00 0.00 92 1017.9
20260503072753 53 340 0.0 0.0 0.00 0.00 0.00 91 1017.9
20260503072250 53 340 0.0 0.0 0.00 0.00 0.00 91 1017.8
20260503071746 53 340 0.0 0.0 0.00 0.00 0.00 90 1017.8
20260503071243 53 340 0.0 0.0 0.00 0.00 0.00 90 1018.0
20260503070739 53 340 0.0 0.0 0.00 0.00 0.00 90 1017.7
20260503070238 54 340 0.0 0.0 0.00 0.00 0.00 90 1017.8
20260503060202 56 337 0.0 0.0 0.00 0.00 0.00 86 1017.8
20260503054649 56 337 0.0 0.0 0.00 0.00 0.00 87 1017.6
20260503054147 57 337 0.0 0.0 0.00 0.00 0.00 85 1018.0
20260503053644 57 337 0.0 0.0 0.00 0.00 0.00 85 1017.9
20260503053143 57 336 0.0 0.0 0.00 0.00 0.00 84 1017.8
20260503052639 57 336 0.0 0.0 0.00 0.00 0.00 84 1017.8
20260503052135 57 336 0.0 0.0 0.00 0.00 0.00 84 1017.9
20260503051631 58 336 0.0 0.0 0.00 0.00 0.00 84 1017.6
20260503051129 58 336 0.0 0.0 0.00 0.00 0.00 83 1017.7
20260503050625 58 336 0.0 0.0 0.00 0.00 0.00 83 1017.7
20260503050122 58 336 0.0 0.0 0.00 0.00 0.00 83 1017.7
20260503045620 59 336 0.0 0.0 0.00 0.00 0.00 82 1018.0
20260503045116 59 336 0.0 0.0 0.00 0.00 0.00 81 1017.8
20260503044613 59 335 0.0 0.0 0.00 0.00 0.00 81 1017.5
20260503044111 59 335 0.0 0.0 0.00 0.00 0.00 81 1017.7
20260503043607 60 335 0.0 0.0 0.00 0.00 0.00 81 1017.5
20260503043104 60 335 0.0 0.0 0.00 0.00 0.00 80 1017.4
20260503042600 60 335 0.0 0.0 0.00 0.00 0.00 80 1017.5
20260503042056 61 335 0.0 0.0 0.00 0.00 0.00 79 1017.5
20260503041553 61 335 0.0 0.0 0.00 0.00 0.00 78 1017.3
20260503041051 61 335 0.0 0.0 0.00 0.00 0.00 77 1017.2
20260503040548 61 334 0.0 0.0 0.00 0.00 0.00 77 1017.2
20260503040045 62 333 0.0 0.0 0.00 0.00 0.00 77 1017.1
20260503035542 62 336 0.0 0.0 0.00 0.00 0.00 76 1017.3
20260503035040 63 335 0.0 0.0 0.00 0.00 0.00 74 1016.9
20260503034537 64 349 0.0 0.0 0.00 0.00 0.00 73 1017.1
20260503034034 64 348 0.0 0.0 0.00 0.00 0.00 72 1017.1
20260503033531 64 13 0.0 0.0 0.00 0.00 0.00 70 1016.7
20260503033029 65 13 0.0 0.0 0.00 0.00 0.00 72 1016.8
20260503032527 66 4 0.0 0.0 0.00 0.00 0.00 68 1016.7
20260503032025 67 5 0.0 0.0 0.00 0.00 0.00 67 1016.7
20260503031522 67 10 0.0 0.0 0.00 0.00 0.00 63 1016.6
20260503031019 68 23 0.0 0.9 0.00 0.00 0.00 60 1016.6
20260503030515 68 23 0.0 0.0 0.00 0.00 0.00 59 1016.5
20260503030013 68 339 0.0 0.0 0.00 0.00 0.00 58 1016.3
20260503025509 68 3 0.0 0.0 0.00 0.00 0.00 59 1016.3
20260503025007 69 352 0.0 0.0 0.00 0.00 0.00 62 1016.5
20260503024503 69 1 0.0 0.0 0.00 0.00 0.00 61 1016.3
20260503024000 70 349 0.0 0.0 0.00 0.00 0.00 60 1016.5
20260503023457 70 9 0.0 0.9 0.00 0.00 0.00 60 1016.1
20260503022954 70 1 0.0 0.0 0.00 0.00 0.00 60 1016.3
20260503022449 70 15 0.0 0.9 0.00 0.00 0.00 59 1016.1
20260503021945 71 31 0.0 0.9 0.00 0.00 0.00 60 1016.2
20260503021442 71 339 0.0 0.0 0.00 0.00 0.00 60 1016.1
20260503020939 72 351 0.0 0.9 0.00 0.00 0.00 59 1016.0
20260503020437 72 1 0.0 0.0 0.00 0.00 0.00 65 1016.0
20260503015933 72 340 0.0 0.0 0.00 0.00 0.00 60 1016.0
20260503015430 73 328 0.0 0.0 0.00 0.00 0.00 59 1016.2
20260503014926 73 340 0.0 0.0 0.00 0.00 0.00 58 1016.0
20260503014423 74 344 0.0 0.9 0.00 0.00 0.00 58 1016.3
20260503013921 74 339 0.0 0.0 0.00 0.00 0.00 59 1016.2
20260503013418 75 8 0.0 0.0 0.00 0.00 0.00 58 1016.1
20260503012915 75 346 0.0 0.0 0.00 0.00 0.00 57 1016.0
20260503012413 75 340 0.0 0.0 0.00 0.00 0.00 55 1016.2
20260503011909 75 0 0.0 0.0 0.00 0.00 0.00 56 1016.2
20260503011406 75 24 0.0 0.0 0.00 0.00 0.00 57 1016.3
20260503010903 75 323 0.0 0.0 0.00 0.00 0.00 56 1016.2
20260503010400 76 328 0.0 0.9 0.00 0.00 0.00 56 1016.2
20260503005857 76 32 0.0 0.0 0.00 0.00 0.00 56 1016.1
20260503005354 76 345 0.0 0.9 0.00 0.00 0.00 55 1016.1
20260503004850 76 11 0.0 0.9 0.00 0.00 0.00 55 1016.1
20260503004348 76 33 0.0 0.0 0.00 0.00 0.00 60 1016.2
20260503003845 76 42 0.9 1.7 0.00 0.00 0.00 55 1016.2
20260503003342 77 56 0.0 0.0 0.00 0.00 0.00 56 1016.3
20260503002839 77 29 0.9 1.7 0.00 0.00 0.00 56 1016.3
20260503002336 77 27 0.0 1.7 0.00 0.00 0.00 56 1016.3
20260503001832 77 17 0.0 0.0 0.00 0.00 0.00 57 1016.2
20260503001328 77 351 0.0 0.9 0.00 0.00 0.00 58 1016.2
20260503000826 78 330 0.0 0.9 0.00 0.00 0.00 55 1016.3
20260503000325 78 1 0.0 0.0 0.00 0.00 0.00 54 1016.4
20260502235820 78 324 0.0 0.9 0.00 0.00 0.00 56 1016.4
20260502235318 78 90 0.0 0.9 0.00 0.00 0.00 56 1016.4
20260502234814 78 359 0.0 0.9 0.00 0.00 0.00 56 1016.3
20260502234312 79 21 0.0 1.7 0.00 0.00 0.00 54 1016.4
20260502233808 79 13 0.0 0.9 0.00 0.00 0.00 55 1016.5
20260502233304 79 334 0.0 0.9 0.00 0.00 0.00 55 1016.7
20260502232800 80 356 0.0 0.0 0.00 0.00 0.00 57 1016.7
20260502232257 80 302 0.9 0.9 0.00 0.00 0.00 51 1016.9
20260502231754 80 315 0.0 1.7 0.00 0.00 0.00 54 1017.0
20260502231252 80 293 0.0 0.0 0.00 0.00 0.00 56 1016.7
20260502230750 80 32 0.0 0.0 0.00 0.00 0.00 55 1016.9
20260502230248 79 334 0.0 2.6 0.00 0.00 0.00 55 1017.1
20260502225744 81 353 0.0 0.9 0.00 0.00 0.00 53 1017.2
20260502225241 81 47 0.0 1.7 0.00 0.00 0.00 57 1017.2
20260502224737 80 319 0.0 0.0 0.00 0.00 0.00 54 1017.4
20260502224234 81 7 0.0 0.0 0.00 0.00 0.00 51 1017.2
20260502223732 80 284 0.0 0.9 0.00 0.00 0.00 53 1017.5
20260502223230 79 285 0.0 0.9 0.00 0.00 0.00 53 1017.6
20260502222727 78 53 0.0 0.9 0.00 0.00 0.00 57 1017.5
20260502222223 79 145 0.0 0.9 0.00 0.00 0.00 55 1017.6
20260502221720 79 338 0.0 1.7 0.00 0.00 0.00 55 1017.6
20260502221216 79 340 0.0 2.6 0.00 0.00 0.00 54 1017.7
20260502220713 79 96 0.9 1.7 0.00 0.00 0.00 55 1017.8
20260502220209 79 53 0.9 5.2 0.00 0.00 0.00 51 1017.6
20260502215706 78 298 0.0 1.7 0.00 0.00 0.00 58 1017.7
20260502215203 79 39 0.0 1.7 0.00 0.00 0.00 55 1018.1
20260502214700 78 333 0.0 2.6 0.00 0.00 0.00 55 1017.7
20260502214158 78 325 0.0 1.7 0.00 0.00 0.00 60 1017.7
20260502213654 77 198 0.0 0.9 0.00 0.00 0.00 60 1017.8
20260502213151 79 29 0.9 1.7 0.00 0.00 0.00 50 1018.1
20260502212650 78 310 0.0 0.9 0.00 0.00 0.00 54 1017.9
20260502212148 78 286 0.9 0.9 0.00 0.00 0.00 53 1018.0
20260502211643 77 292 0.9 2.6 0.00 0.00 0.00 57 1018.1
20260502211141 79 120 0.0 1.7 0.00 0.00 0.00 53 1018.2
20260502210638 76 324 0.0 0.9 0.00 0.00 0.00 59 1018.3
20260502210135 75 30 0.0 0.9 0.00 0.00 0.00 57 1018.2
20260502205632 77 41 0.0 0.9 0.00 0.00 0.00 52 1018.4
20260502205128 76 68 0.9 0.9 0.00 0.00 0.00 54 1018.3
20260502204625 75 51 0.9 0.9 0.00 0.00 0.00 56 1018.7
20260502204123 73 301 0.0 1.7 0.00 0.00 0.00 59 1018.4
20260502203620 74 37 0.9 0.9 0.00 0.00 0.00 58 1018.5
20260502203118 73 62 0.0 0.9 0.00 0.00 0.00 58 1018.5
20260502202613 73 306 0.0 2.6 0.00 0.00 0.00 62 1018.6
20260502202111 74 79 0.0 0.9 0.00 0.00 0.00 62 1018.8
20260502201607 73 290 0.0 1.7 0.00 0.00 0.00 61 1018.6
20260502201104 73 320 0.9 1.7 0.00 0.00 0.00 62 1018.9
20260502200600 73 317 0.0 0.9 0.00 0.00 0.00 62 1018.8